Flag for South Africa

Past Weather in 34°10'37.1"S, 22°08'38.0"E, South Africa — Yesterday and Last 2 Weeks

Currently: 55 °F. Clear. (Weather station: George Airport, South Africa). See more current weather

Past Weather in 34°10'37.1"S, 22°08'38.0"E — Graph

°F

34°10'37.1"S, 22°08'38.0"E Temperature Yesterday

Maximum temperature yesterday: 70 °F (at 2:00 pm)
Minimum temperature yesterday: 50 °F (at 7:00 am)
Average temperature yesterday: 59 °F

High & Low Weather Summary for the Past Weeks

 TemperatureHumidityPressure
High88 °F (May 14, 3:18 pm)100% (May 14, 1:00 am)30.30 "Hg (May 14, 1:00 am)
Low45 °F (May 13, 4:23 am)26% (May 6, 1:13 pm)29.74 "Hg (May 10, 2:23 pm)
Average60 °F73%30.06 "Hg
* Reported May 4 2:00 am — May 19 1:00 am, 34°10'37.1"S, 22°08'38.0"E. Weather by CustomWeather, © 2024

Note: Actual official high and low records may vary slightly from our data, if they occured in-between our weather recording intervals... More about our weather records

34°10'37.1"S, 22°08'38.0"E Weather History for the Previous 24 Hours

Scroll right to see more
 ConditionsComfort  
Time TempWeatherWind HumidityBarometerVisibility
1:00 am
Sun, May 19
57 °FClear.6 mph72%30.07 "Hg10 mi
12:00 am54 °FClear.5 mph77%30.07 "Hg10 mi
11:00 pm
Sat, May 18
54 °FClear.5 mph82%30.07 "Hg10 mi
10:00 pm54 °FClear.3 mph82%30.07 "Hg10 mi
9:00 pm55 °FClear.5 mph82%30.07 "Hg10 mi
8:00 pm55 °FClear.3 mph94%30.07 "Hg10 mi
7:00 pm59 °FPassing clouds.3 mph88%30.07 "HgN/A
6:00 pm61 °FClear.5 mph88%30.07 "Hg10 mi
5:00 pm64 °FSunny.6 mph78%30.07 "Hg10 mi
4:00 pm68 °FPassing clouds.7 mph73%30.07 "HgN/A
3:00 pm68 °FPassing clouds.6 mph73%30.04 "HgN/A
2:00 pm70 °FPassing clouds.3 mph64%30.07 "HgN/A
1:00 pm66 °FPassing clouds.5 mph68%30.09 "HgN/A
12:00 pm66 °FPassing clouds.7 mph68%30.12 "HgN/A
11:00 am64 °FPassing clouds.7 mph83%30.15 "HgN/A
10:00 am61 °FPassing clouds.3 mph88%30.15 "HgN/A
9:00 am57 °FSunny.1 mph100%30.15 "Hg10 mi
8:00 am52 °FSunny.2 mph82%30.15 "Hg10 mi
7:00 am50 °FFog.5 mph100%30.15 "Hg1 mi
6:00 am52 °FFog.3 mph88%30.12 "Hg2 mi
5:00 am52 °FFog.3 mph88%30.15 "Hg1 mi
4:00 am55 °FLight rain. Fog.5 mph94%30.18 "Hg1 mi
3:00 am55 °FPassing clouds.3 mph94%30.18 "HgN/A
2:00 am59 °FPassing clouds.3 mph88%30.18 "HgN/A
Weather by CustomWeather, © 2024

See weather overview